Погода в Устиновке

Россия / Саратовская область     51°27′07″N   43°21′59″E
темп.,
°C
ветер,
м/с
пор.,
м/с
влажн.,
%
обл.,
%
осадки,
мм/ч
давл.,
гПа
погр.,
м
16 апреля, пт
пт1601:00+12зсз2380100 0.0 101689
04:00+11зсз2286100 0.3 101633
07:00+10з2292100 1.8 101645
10:00+14з227279 2.3 1017350
13:00+17зюз335297 0.0 10171185
16:00+19юз224368 0.0 10171626
19:00+18ююз11505 0.0 101722
22:00+13зсз22590 0.1 101810
17 апреля, сб
сб1701:00+12всв1162100 0.1 101911
04:00+11вюв2277100 0.4 101812
07:00+10зюз2473100 0.0 101881
10:00+13с2263100 0.0 1018214
13:00+12юз4578100 0.8 1019415
16:00+10зюз5984100 9.1 1019552
19:00+10св118199 1.3 102081
22:00+8в22870 1.3 102016
18 апреля, вс
вс1801:00+6юв22882 0.0 102117
04:00+6ю22891 0.0 102115
07:00+6ююз22910 0.0 102022
10:00+10зюз33674 0.0 1020515
13:00+14юз335124 0.0 10201304
16:00+15зюз324510 0.0 10191666
19:00+14з12538 0.0 101950
22:00+10ссз336492 0.0 102028
19 апреля, пн
пн1901:00+8ссв3477100 0.0 102068
04:00+8ссв2377100 0.0 102034
07:00+8ссв2278100 0.0 102031
10:00+12всв3468100 0.0 1019438
13:00+16в454958 0.2 10181776
16:00+15всв676195 0.3 1017760
19:00+13в7117276 0.3 1018733
22:00+10в81580100 0.3 1018504
20 апреля, вт
вт2001:00+10в81683100 0.0 1016558
04:00+9вюв91785100 0.0 1015608
07:00+9в101985100 0.0 1014669
10:00+8вюв102088100 2.2 1014741
13:00+8вюв132387100 5.6 1012853
16:00+10вюв122186100 8.9 10121123
19:00+11юв132484100 4.1 10111320
22:00+10ююв91686100 6.7 1012742